User: anonymous   Login
Location: Vancouver
(49.2500°N, 123.1330°W)
Time: 04:52:10
(UTC-07:00)
Language:

Iridium 35 - Orbit

View from above orbital plane
View from above orbital plane
View from above satellite
View from above satellite

Ground track
Ground track

The orbit data is extracted from the following two-line orbital elements,

1 24966U 97056B   16148.45475709  .00000034  00000-0  51197-5 0  9990
2 24966  86.3951 119.9682 0002278  85.8862 274.2595 14.34215031977240
Epoch (UTC): 27 May 2016 10:54:51
Eccentricity: 0.0002278
inclination: 86.3951°
perigee height: 776 km
apogee height: 779 km
right ascension of ascending node: 119.9682°
argument of perigee: 85.8862°
revolutions per day: 14.34215031
mean anomaly at epoch: 274.2595°
orbit number at epoch: 97724

The dashed part of the orbit path shows where the satellite is in the earth's shadow,  

DLR